Time,TemperatureF,DewpointF,PressureIn,WindDirection,WindDirectionDegrees,WindSpeedMPH,WindSpeedGustMPH,Humidity,HourlyPrecipIn,Conditions,Clouds,dailyrainin,SoftwareType,DateUTC
2013-03-06 00:00:00,34.0,55.9,30.14,North,9,3.0,6.0,0,0.00,,,0.00,meteohub,2013-03-06 05:00:00,
2013-03-06 00:01:00,34.0,55.9,30.14,NNW,348,3.0,6.0,0,0.00,,,0.00,meteohub,2013-03-06 05:01:00,
2013-03-06 00:06:00,34.0,55.9,30.14,NE,53,5.0,6.0,0,0.00,,,0.00,meteohub,2013-03-06 05:06:00,
2013-03-06 00:12:00,34.0,55.9,30.14,West,268,9.0,9.0,0,0.00,,,0.00,meteohub,2013-03-06 05:12:00,
2013-03-06 00:17:00,34.2,55.9,30.15,NNW,333,4.0,9.0,0,0.00,,,0.00,meteohub,2013-03-06 05:17:00,
2013-03-06 00:22:00,34.2,55.9,30.15,NW,313,7.0,9.0,0,0.00,,,0.00,meteohub,2013-03-06 05:22:00,
2013-03-06 00:27:00,34.2,55.9,30.15,NNE,18,7.0,9.0,0,0.00,,,0.00,meteohub,2013-03-06 05:27:00,
2013-03-06 00:32:00,34.2,55.9,30.15,WSW,246,5.0,9.0,0,0.00,,,0.00,meteohub,2013-03-06 05:32:00,
2013-03-06 00:37:00,34.0,55.9,30.15,NW,323,4.0,7.0,0,0.00,,,0.00,meteohub,2013-03-06 05:37:00,
2013-03-06 00:42:00,34.0,55.9,30.15,NW,306,3.0,7.0,0,0.00,,,0.00,meteohub,2013-03-06 05:42:00,
2013-03-06 00:47:00,34.2,55.9,30.16,NW,310,4.0,7.0,0,0.00,,,0.00,meteohub,2013-03-06 05:47:00,
2013-03-06 00:52:00,34.2,55.0,30.16,North,358,5.0,5.0,0,0.00,,,0.00,meteohub,2013-03-06 05:52:00,
2013-03-06 00:57:00,34.2,55.0,30.16,South,174,3.0,5.0,0,0.00,,,0.00,meteohub,2013-03-06 05:57:00,
2013-03-06 01:02:00,34.2,55.0,30.17,West,281,7.0,7.0,0,0.00,,,0.00,meteohub,2013-03-06 06:02:00,
2013-03-06 01:07:00,34.2,55.0,30.17,West,275,6.0,7.0,0,0.00,,,0.00,meteohub,2013-03-06 06:07:00,
2013-03-06 01:12:00,34.2,55.0,30.17,West,275,0.0,7.0,0,0.00,,,0.00,meteohub,2013-03-06 06:12:00,
2013-03-06 01:17:00,34.2,55.0,30.17,North,352,5.0,7.0,0,0.00,,,0.00,meteohub,2013-03-06 06:17:00,
2013-03-06 01:22:00,34.2,55.0,30.17,WNW,300,4.0,7.0,0,0.00,,,0.00,meteohub,2013-03-06 06:22:00,
2013-03-06 01:28:00,34.0,55.0,30.17,West,260,4.0,6.0,0,0.00,,,0.00,meteohub,2013-03-06 06:28:00,
2013-03-06 01:33:00,34.2,55.0,30.17,North,355,7.0,7.0,0,0.00,,,0.00,meteohub,2013-03-06 06:33:00,
2013-03-06 01:38:00,34.0,55.0,30.17,NNW,337,3.0,7.0,0,0.00,,,0.00,meteohub,2013-03-06 06:38:00,
2013-03-06 01:43:00,34.2,55.0,30.17,NW,316,2.0,7.0,0,0.00,,,0.00,meteohub,2013-03-06 06:43:00,
2013-03-06 01:48:00,34.2,55.0,30.17,ENE,57,5.0,7.0,0,0.00,,,0.00,meteohub,2013-03-06 06:48:00,
2013-03-06 01:53:00,34.2,55.0,30.17,WSW,241,4.0,7.0,0,0.00,,,0.00,meteohub,2013-03-06 06:53:00,
2013-03-06 01:58:00,34.0,55.0,30.17,NNW,337,5.0,5.0,0,0.00,,,0.00,meteohub,2013-03-06 06:58:00,
2013-03-06 02:03:00,34.0,55.0,30.17,SW,225,6.0,6.0,0,0.00,,,0.00,meteohub,2013-03-06 07:03:00,
2013-03-06 02:08:00,34.0,55.0,30.17,North,358,8.0,8.0,0,0.00,,,0.00,meteohub,2013-03-06 07:08:00,
2013-03-06 02:14:00,33.8,55.0,30.18,NE,56,4.0,8.0,0,0.00,,,0.00,meteohub,2013-03-06 07:14:00,
2013-03-06 02:19:00,34.0,55.0,30.18,ENE,61,2.0,8.0,0,0.00,,,0.00,meteohub,2013-03-06 07:19:00,
2013-03-06 02:24:00,34.0,55.0,30.18,WSW,247,7.0,8.0,0,0.00,,,0.00,meteohub,2013-03-06 07:24:00,
2013-03-06 02:29:00,34.0,55.0,30.18,SE,125,3.0,8.0,0,0.00,,,0.00,meteohub,2013-03-06 07:29:00,
2013-03-06 02:34:00,33.8,55.0,30.18,NW,315,9.0,9.0,0,0.00,,,0.00,meteohub,2013-03-06 07:34:00,
2013-03-06 02:39:00,33.6,55.0,30.18,ENE,68,7.0,9.0,0,0.00,,,0.00,meteohub,2013-03-06 07:39:00,
2013-03-06 02:44:00,33.8,55.0,30.19,NNW,330,2.0,9.0,0,0.00,,,0.00,meteohub,2013-03-06 07:44:00,
2013-03-06 02:49:00,34.0,55.0,30.19,NW,310,3.0,9.0,0,0.00,,,0.00,meteohub,2013-03-06 07:49:00,
2013-03-06 02:54:00,33.6,55.0,30.19,WNW,298,6.0,9.0,0,0.00,,,0.00,meteohub,2013-03-06 07:54:00,
2013-03-06 02:59:00,33.6,55.0,30.19,NNW,341,6.0,7.0,0,0.00,,,0.00,meteohub,2013-03-06 07:59:00,
2013-03-06 03:05:00,33.6,55.0,30.19,NW,320,9.0,9.0,0,0.00,,,0.00,meteohub,2013-03-06 08:05:00,
2013-03-06 03:10:00,33.8,55.0,30.19,NW,309,10.0,10.0,0,0.00,,,0.00,meteohub,2013-03-06 08:10:00,
2013-03-06 03:15:00,33.8,55.0,30.19,SSE,151,6.0,10.0,0,0.00,,,0.00,meteohub,2013-03-06 08:15:00,
2013-03-06 03:20:00,33.6,55.0,30.19,WNW,300,6.0,10.0,0,0.00,,,0.00,meteohub,2013-03-06 08:20:00,
2013-03-06 03:25:00,33.6,55.0,30.20,North,354,3.0,10.0,0,0.00,,,0.00,meteohub,2013-03-06 08:25:00,
2013-03-06 03:30:00,33.6,55.0,30.20,NNE,32,5.0,6.0,0,0.00,,,0.00,meteohub,2013-03-06 08:30:00,
2013-03-06 03:35:00,33.4,55.0,30.20,NNE,12,7.0,7.0,0,0.00,,,0.00,meteohub,2013-03-06 08:35:00,
2013-03-06 03:40:00,33.4,55.0,30.20,WSW,250,4.0,7.0,0,0.00,,,0.00,meteohub,2013-03-06 08:40:00,
2013-03-06 03:45:00,33.3,55.0,30.20,WSW,250,2.0,7.0,0,0.00,,,0.00,meteohub,2013-03-06 08:45:00,
2013-03-06 03:51:00,33.3,55.0,30.21,NW,310,5.0,7.0,0,0.00,,,0.00,meteohub,2013-03-06 08:51:00,
2013-03-06 03:56:00,33.4,55.0,30.21,SE,140,6.0,6.0,0,0.00,,,0.00,meteohub,2013-03-06 08:56:00,
2013-03-06 04:01:00,33.4,55.0,30.21,SSE,163,2.0,6.0,0,0.00,,,0.00,meteohub,2013-03-06 09:01:00,
2013-03-06 04:06:00,33.3,55.0,30.21,NNW,327,4.0,6.0,0,0.00,,,0.00,meteohub,2013-03-06 09:06:00,
2013-03-06 04:11:00,33.3,55.0,30.22,West,268,4.0,6.0,0,0.00,,,0.00,meteohub,2013-03-06 09:11:00,
2013-03-06 04:16:00,33.3,55.0,30.22,SE,140,6.0,6.0,0,0.00,,,0.00,meteohub,2013-03-06 09:16:00,
2013-03-06 04:21:00,33.3,55.0,30.22,WSW,258,3.0,6.0,0,0.00,,,0.00,meteohub,2013-03-06 09:21:00,
2013-03-06 04:26:00,33.3,55.0,30.22,NNW,336,5.0,6.0,0,0.00,,,0.00,meteohub,2013-03-06 09:26:00,
2013-03-06 04:31:00,33.3,55.0,30.22,South,171,3.0,6.0,0,0.00,,,0.00,meteohub,2013-03-06 09:31:00,
2013-03-06 04:36:00,33.3,55.0,30.22,SE,127,7.0,7.0,0,0.00,,,0.00,meteohub,2013-03-06 09:36:00,
2013-03-06 04:42:00,33.3,55.0,30.22,NNE,15,9.0,9.0,0,0.00,,,0.00,meteohub,2013-03-06 09:42:00,
2013-03-06 04:47:00,33.1,55.0,30.23,West,274,3.0,9.0,0,0.00,,,0.00,meteohub,2013-03-06 09:47:00,
2013-03-06 04:52:00,33.3,55.0,30.23,WSW,240,5.0,9.0,0,0.00,,,0.00,meteohub,2013-03-06 09:52:00,
2013-03-06 04:57:00,33.3,55.0,30.23,NNW,333,7.0,9.0,0,0.00,,,0.00,meteohub,2013-03-06 09:57:00,
2013-03-06 05:02:00,33.3,55.0,30.24,NW,307,6.0,9.0,0,0.00,,,0.00,meteohub,2013-03-06 10:02:00,
2013-03-06 05:07:00,33.1,55.0,30.24,WNW,291,6.0,7.0,0,0.00,,,0.00,meteohub,2013-03-06 10:07:00,
2013-03-06 05:12:00,33.1,55.0,30.23,NW,319,4.0,7.0,0,0.00,,,0.00,meteohub,2013-03-06 10:12:00,
2013-03-06 05:17:00,33.1,55.0,30.24,South,185,5.0,7.0,0,0.00,,,0.00,meteohub,2013-03-06 10:17:00,
2013-03-06 05:22:00,32.9,55.0,30.24,NNW,344,9.0,9.0,0,0.00,,,0.00,meteohub,2013-03-06 10:22:00,
2013-03-06 05:27:00,32.9,55.0,30.24,WSW,258,5.0,9.0,0,0.00,,,0.00,meteohub,2013-03-06 10:27:00,
2013-03-06 05:32:00,33.1,55.0,30.24,NNE,21,6.0,9.0,0,0.00,,,0.00,meteohub,2013-03-06 10:32:00,
2013-03-06 05:37:00,32.9,55.0,30.24,WNW,300,4.0,9.0,0,0.00,,,0.00,meteohub,2013-03-06 10:37:00,
2013-03-06 05:42:00,32.7,55.0,30.24,NE,35,4.0,9.0,0,0.00,,,0.00,meteohub,2013-03-06 10:42:00,
2013-03-06 05:47:00,32.5,55.0,30.23,WNW,288,8.0,8.0,0,0.00,,,0.00,meteohub,2013-03-06 10:47:00,
2013-03-06 05:52:00,32.4,55.0,30.23,NNW,327,4.0,8.0,0,0.00,,,0.00,meteohub,2013-03-06 10:52:00,
2013-03-06 05:57:00,32.4,55.0,30.23,WNW,300,7.0,8.0,0,0.00,,,0.00,meteohub,2013-03-06 10:57:00,
2013-03-06 06:02:00,32.4,55.0,30.23,NW,319,8.0,8.0,0,0.00,,,0.00,meteohub,2013-03-06 11:02:00,
2013-03-06 06:08:00,32.2,55.0,30.23,WNW,288,7.0,8.0,0,0.00,,,0.00,meteohub,2013-03-06 11:08:00,
2013-03-06 06:13:00,32.2,55.0,30.23,NW,306,5.0,8.0,0,0.00,,,0.00,meteohub,2013-03-06 11:13:00,
2013-03-06 06:18:00,32.2,55.0,30.23,WNW,302,6.0,8.0,0,0.00,,,0.00,meteohub,2013-03-06 11:18:00,
2013-03-06 06:23:00,32.0,55.0,30.23,North,0,8.0,8.0,0,0.00,,,0.00,meteohub,2013-03-06 11:23:00,
2013-03-06 06:28:00,32.0,55.0,30.24,NW,313,7.0,8.0,0,0.00,,,0.00,meteohub,2013-03-06 11:28:00,
2013-03-06 06:33:00,32.0,55.0,30.24,NW,324,7.0,8.0,0,0.00,,,0.00,meteohub,2013-03-06 11:33:00,
2013-03-06 06:38:00,32.0,55.0,30.24,WNW,293,6.0,8.0,0,0.00,,,0.00,meteohub,2013-03-06 11:38:00,
2013-03-06 06:44:00,32.2,55.0,30.24,WNW,288,6.0,8.0,0,0.00,,,0.00,meteohub,2013-03-06 11:44:00,
2013-03-06 06:49:00,32.2,55.0,30.24,WNW,303,9.0,9.0,0,0.00,,,0.00,meteohub,2013-03-06 11:49:00,
2013-03-06 06:54:00,32.2,55.0,30.24,WNW,289,6.0,9.0,0,0.00,,,0.00,meteohub,2013-03-06 11:54:00,
2013-03-06 06:59:00,32.2,55.0,30.24,NNW,338,9.0,9.0,0,0.00,,,0.00,meteohub,2013-03-06 11:59:00,
2013-03-06 07:04:00,32.2,55.0,30.25,NNE,12,9.0,9.0,0,0.00,,,0.00,meteohub,2013-03-06 12:04:00,
2013-03-06 07:09:00,32.2,55.0,30.25,ESE,109,6.0,9.0,0,0.00,,,0.00,meteohub,2013-03-06 12:09:00,
2013-03-06 07:14:00,32.4,55.0,30.25,NW,313,6.0,9.0,0,0.00,,,0.00,meteohub,2013-03-06 12:14:00,
2013-03-06 07:20:00,32.2,55.0,30.25,South,185,9.0,9.0,0,0.00,,,0.00,meteohub,2013-03-06 12:20:00,
2013-03-06 07:25:00,32.4,55.0,30.25,SSW,198,6.0,9.0,0,0.00,,,0.00,meteohub,2013-03-06 12:25:00,
2013-03-06 07:30:00,32.4,55.0,30.25,West,277,6.0,9.0,0,0.00,,,0.00,meteohub,2013-03-06 12:30:00,
2013-03-06 07:35:00,32.5,55.0,30.25,East,98,4.0,9.0,0,0.00,,,0.00,meteohub,2013-03-06 12:35:00,
2013-03-06 07:40:00,32.7,55.0,30.25,East,99,6.0,6.0,0,0.00,,,0.00,meteohub,2013-03-06 12:40:00,
2013-03-06 07:45:00,33.1,55.0,30.25,WNW,288,6.0,6.0,0,0.00,,,0.00,meteohub,2013-03-06 12:45:00,
2013-03-06 07:50:00,33.1,55.0,30.25,SSE,153,10.0,10.0,0,0.00,,,0.00,meteohub,2013-03-06 12:50:00,
2013-03-06 07:56:00,33.1,55.0,30.25,NNW,333,4.0,10.0,0,0.00,,,0.00,meteohub,2013-03-06 12:56:00,
2013-03-06 08:01:00,33.3,55.0,30.25,NNW,338,10.0,10.0,0,0.00,,,0.00,meteohub,2013-03-06 13:01:00,
2013-03-06 08:06:00,33.3,55.0,30.25,SW,229,7.0,10.0,0,0.00,,,0.00,meteohub,2013-03-06 13:06:00,
2013-03-06 08:11:00,33.6,55.0,30.25,SE,127,9.0,10.0,0,0.00,,,0.00,meteohub,2013-03-06 13:11:00,
2013-03-06 08:16:00,33.6,55.0,30.25,NW,322,7.0,10.0,0,0.00,,,0.00,meteohub,2013-03-06 13:16:00,
2013-03-06 08:21:00,33.8,55.0,30.25,North,9,9.0,10.0,0,0.00,,,0.00,meteohub,2013-03-06 13:21:00,
2013-03-06 08:27:00,34.0,55.0,30.25,WNW,302,6.0,9.0,0,0.00,,,0.00,meteohub,2013-03-06 13:27:00,
2013-03-06 08:32:00,34.0,55.0,30.25,NW,320,9.0,9.0,0,0.00,,,0.00,meteohub,2013-03-06 13:32:00,
2013-03-06 08:37:00,34.2,55.0,30.25,North,5,8.0,9.0,0,0.00,,,0.00,meteohub,2013-03-06 13:37:00,
2013-03-06 08:42:00,34.9,55.0,30.25,WNW,286,5.0,9.0,0,0.00,,,0.00,meteohub,2013-03-06 13:42:00,
2013-03-06 08:47:00,34.5,55.0,30.25,NE,52,7.0,9.0,0,0.00,,,0.00,meteohub,2013-03-06 13:47:00,
2013-03-06 08:52:00,34.5,55.0,30.26,SSW,201,2.0,9.0,0,0.00,,,0.00,meteohub,2013-03-06 13:52:00,
2013-03-06 08:57:00,34.5,55.0,30.26,NNW,337,3.0,8.0,0,0.00,,,0.00,meteohub,2013-03-06 13:57:00,
2013-03-06 09:02:00,34.7,55.0,30.26,WSW,239,9.0,9.0,0,0.00,,,0.00,meteohub,2013-03-06 14:02:00,
2013-03-06 09:07:00,34.7,55.0,30.26,NNE,29,5.0,9.0,0,0.00,,,0.00,meteohub,2013-03-06 14:07:00,
2013-03-06 09:12:00,34.9,55.0,30.26,SSW,213,5.0,9.0,0,0.00,,,0.00,meteohub,2013-03-06 14:12:00,
2013-03-06 09:17:00,35.2,55.0,30.26,West,265,6.0,9.0,0,0.00,,,0.00,meteohub,2013-03-06 14:17:00,
2013-03-06 09:22:00,35.2,55.0,30.26,WSW,253,4.0,9.0,0,0.00,,,0.00,meteohub,2013-03-06 14:22:00,
2013-03-06 09:27:00,35.2,55.0,30.25,NW,317,8.0,8.0,0,0.00,,,0.00,meteohub,2013-03-06 14:27:00,
2013-03-06 09:32:00,35.4,55.0,30.26,NNW,330,9.0,9.0,0,0.00,,,0.00,meteohub,2013-03-06 14:32:00,
2013-03-06 09:37:00,35.4,55.0,30.26,NNW,334,6.0,9.0,0,0.00,,,0.00,meteohub,2013-03-06 14:37:00,
2013-03-06 09:43:00,35.4,55.0,30.26,NW,312,6.0,9.0,0,0.00,,,0.00,meteohub,2013-03-06 14:43:00,
2013-03-06 09:48:00,35.2,55.0,30.26,SSE,168,6.0,9.0,0,0.00,,,0.00,meteohub,2013-03-06 14:48:00,
2013-03-06 09:53:00,35.2,55.0,30.26,NE,46,10.0,10.0,0,0.00,,,0.00,meteohub,2013-03-06 14:53:00,
2013-03-06 09:58:00,35.2,55.0,30.26,WNW,293,5.0,10.0,0,0.00,,,0.00,meteohub,2013-03-06 14:58:00,
2013-03-06 10:03:00,35.2,55.0,30.25,West,271,6.0,10.0,0,0.00,,,0.00,meteohub,2013-03-06 15:03:00,
2013-03-06 10:08:00,35.4,55.0,30.25,NNE,15,6.0,10.0,0,0.00,,,0.00,meteohub,2013-03-06 15:08:00,
2013-03-06 10:13:00,35.4,55.0,30.25,East,94,8.0,10.0,0,0.00,,,0.00,meteohub,2013-03-06 15:13:00,
2013-03-06 10:18:00,36.1,55.0,30.25,East,99,7.0,8.0,0,0.00,,,0.00,meteohub,2013-03-06 15:18:00,
2013-03-06 10:24:00,36.1,55.0,30.25,North,4,5.0,8.0,0,0.00,,,0.00,meteohub,2013-03-06 15:24:00,
2013-03-06 10:29:00,36.1,55.0,30.26,West,277,6.0,8.0,0,0.00,,,0.00,meteohub,2013-03-06 15:29:00,
2013-03-06 10:34:00,36.9,55.0,30.26,West,268,6.0,8.0,0,0.00,,,0.00,meteohub,2013-03-06 15:34:00,
2013-03-06 10:39:00,36.9,55.0,30.26,SSE,154,5.0,7.0,0,0.00,,,0.00,meteohub,2013-03-06 15:39:00,
2013-03-06 10:44:00,37.0,55.0,30.26,SE,135,6.0,6.0,0,0.00,,,0.00,meteohub,2013-03-06 15:44:00,
2013-03-06 10:49:00,37.9,55.0,30.26,North,5,8.0,8.0,0,0.00,,,0.00,meteohub,2013-03-06 15:49:00,
2013-03-06 10:54:00,39.6,55.0,30.26,SSE,156,4.0,8.0,0,0.00,,,0.00,meteohub,2013-03-06 15:54:00,
2013-03-06 11:00:00,39.9,55.0,30.25,South,170,9.0,9.0,0,0.00,,,0.00,meteohub,2013-03-06 16:00:00,
2013-03-06 11:05:00,38.1,55.0,30.26,South,170,6.0,9.0,0,0.00,,,0.00,meteohub,2013-03-06 16:05:00,
2013-03-06 11:10:00,37.8,55.0,30.26,North,358,4.0,9.0,0,0.00,,,0.00,meteohub,2013-03-06 16:10:00,
2013-03-06 11:15:00,37.4,55.0,30.27,NE,45,6.0,9.0,0,0.00,,,0.00,meteohub,2013-03-06 16:15:00,
2013-03-06 11:20:00,37.0,55.0,30.27,SSE,160,6.0,6.0,0,0.00,,,0.00,meteohub,2013-03-06 16:20:00,
2013-03-06 11:25:00,36.9,55.0,30.27,NW,305,6.0,6.0,0,0.00,,,0.00,meteohub,2013-03-06 16:25:00,
2013-03-06 11:30:00,36.9,55.0,30.28,WSW,239,9.0,9.0,0,0.00,,,0.00,meteohub,2013-03-06 16:30:00,
2013-03-06 11:35:00,36.5,55.0,30.28,East,84,8.0,9.0,0,0.00,,,0.00,meteohub,2013-03-06 16:35:00,
2013-03-06 11:40:00,36.3,55.0,30.28,SW,233,11.0,11.0,0,0.00,,,0.00,meteohub,2013-03-06 16:40:00,
2013-03-06 11:45:00,36.7,55.0,30.28,SSW,199,6.0,11.0,0,0.00,,,0.00,meteohub,2013-03-06 16:45:00,
2013-03-06 11:51:00,36.9,55.0,30.28,SSE,165,7.0,11.0,0,0.00,,,0.00,meteohub,2013-03-06 16:51:00,
2013-03-06 11:56:00,36.7,55.0,30.27,SE,132,10.0,11.0,0,0.00,,,0.00,meteohub,2013-03-06 16:56:00,
2013-03-06 12:01:00,36.3,55.0,30.27,ESE,112,9.0,11.0,0,0.00,,,0.00,meteohub,2013-03-06 17:01:00,
2013-03-06 12:06:00,36.3,54.0,30.27,SE,142,9.0,10.0,0,0.00,,,0.00,meteohub,2013-03-06 17:06:00,
2013-03-06 12:11:00,36.5,55.0,30.27,East,101,6.0,10.0,0,0.00,,,0.00,meteohub,2013-03-06 17:11:00,
2013-03-06 12:16:00,36.7,54.0,30.27,SSE,157,9.0,10.0,0,0.00,,,0.00,meteohub,2013-03-06 17:16:00,
2013-03-06 12:21:00,37.2,55.0,30.27,South,170,7.0,9.0,0,0.00,,,0.00,meteohub,2013-03-06 17:21:00,
2013-03-06 12:26:00,37.8,55.0,30.27,NW,312,3.0,9.0,0,0.00,,,0.00,meteohub,2013-03-06 17:26:00,
2013-03-06 12:32:00,37.2,54.0,30.27,East,101,6.0,9.0,0,0.00,,,0.00,meteohub,2013-03-06 17:32:00,
2013-03-06 12:37:00,35.2,55.0,30.27,WNW,286,8.0,9.0,0,0.00,,,0.00,meteohub,2013-03-06 17:37:00,
2013-03-06 12:42:00,35.4,55.0,30.27,WNW,296,6.0,8.0,0,0.00,,,0.00,meteohub,2013-03-06 17:42:00,
2013-03-06 12:47:00,36.5,55.0,30.27,SSE,151,9.0,9.0,0,0.00,,,0.00,meteohub,2013-03-06 17:47:00,
2013-03-06 12:52:00,36.7,54.0,30.27,NE,56,9.0,9.0,0,0.00,,,0.00,meteohub,2013-03-06 17:52:00,
2013-03-06 12:57:00,36.7,54.0,30.27,East,92,8.0,9.0,0,0.00,,,0.00,meteohub,2013-03-06 17:57:00,
2013-03-06 13:02:00,36.0,54.0,30.27,SSE,161,9.0,9.0,0,0.00,,,0.00,meteohub,2013-03-06 18:02:00,
2013-03-06 13:07:00,36.0,54.0,30.27,SSW,203,9.0,9.0,0,0.00,,,0.00,meteohub,2013-03-06 18:07:00,
2013-03-06 13:12:00,36.3,54.0,30.26,SW,226,8.0,9.0,0,0.00,,,0.00,meteohub,2013-03-06 18:12:00,
2013-03-06 13:17:00,36.7,54.0,30.26,SSE,150,7.0,9.0,0,0.00,,,0.00,meteohub,2013-03-06 18:17:00,
2013-03-06 13:22:00,36.9,55.0,30.26,SSE,165,9.0,9.0,0,0.00,,,0.00,meteohub,2013-03-06 18:22:00,
2013-03-06 13:27:00,37.0,55.0,30.26,North,358,7.0,9.0,0,0.00,,,0.00,meteohub,2013-03-06 18:27:00,
2013-03-06 13:32:00,37.0,55.0,30.26,ESE,112,8.0,9.0,0,0.00,,,0.00,meteohub,2013-03-06 18:32:00,
2013-03-06 13:37:00,37.0,55.0,30.25,NNE,33,8.0,9.0,0,0.00,,,0.00,meteohub,2013-03-06 18:37:00,
2013-03-06 13:42:00,37.0,55.0,30.25,SSE,167,8.0,9.0,0,0.00,,,0.00,meteohub,2013-03-06 18:42:00,
2013-03-06 13:47:00,37.4,55.0,30.25,NNW,336,9.0,9.0,0,0.00,,,0.00,meteohub,2013-03-06 18:47:00,
2013-03-06 13:52:00,37.2,55.0,30.25,NNE,12,8.0,9.0,0,0.00,,,0.00,meteohub,2013-03-06 18:52:00,
2013-03-06 13:57:00,37.2,55.0,30.25,SSE,153,8.0,9.0,0,0.00,,,0.00,meteohub,2013-03-06 18:57:00,
2013-03-06 14:02:00,36.9,55.9,30.26,North,358,8.0,9.0,0,0.00,,,0.00,meteohub,2013-03-06 19:02:00,
2013-03-06 14:07:00,36.7,55.9,30.25,SSW,198,9.0,9.0,0,0.00,,,0.00,meteohub,2013-03-06 19:07:00,
2013-03-06 14:12:00,36.1,55.9,30.26,North,11,6.0,9.0,0,0.00,,,0.00,meteohub,2013-03-06 19:12:00,
2013-03-06 14:17:00,36.1,55.9,30.26,North,358,9.0,9.0,0,0.00,,,0.00,meteohub,2013-03-06 19:17:00,
2013-03-06 14:22:00,36.5,55.9,30.26,North,358,9.0,9.0,0,0.00,,,0.00,meteohub,2013-03-06 19:22:00,
2013-03-06 14:27:00,36.3,55.9,30.25,North,358,6.0,9.0,0,0.00,,,0.00,meteohub,2013-03-06 19:27:00,
2013-03-06 14:32:00,36.1,55.9,30.25,SE,144,5.0,9.0,0,0.00,,,0.00,meteohub,2013-03-06 19:32:00,
2013-03-06 14:37:00,36.0,55.9,30.25,North,358,14.0,14.0,0,0.00,,,0.00,meteohub,2013-03-06 19:37:00,
2013-03-06 14:42:00,36.0,55.9,30.25,South,178,10.0,14.0,0,0.00,,,0.00,meteohub,2013-03-06 19:42:00,
2013-03-06 14:47:00,36.1,55.9,30.25,North,11,10.0,14.0,0,0.00,,,0.00,meteohub,2013-03-06 19:47:00,
2013-03-06 14:52:00,36.0,55.9,30.25,North,358,9.0,14.0,0,0.00,,,0.00,meteohub,2013-03-06 19:52:00,
2013-03-06 14:57:00,35.8,55.9,30.25,East,101,8.0,14.0,0,0.00,,,0.00,meteohub,2013-03-06 19:57:00,
2013-03-06 15:02:00,35.4,55.9,30.25,SSE,153,9.0,10.0,0,0.00,,,0.00,meteohub,2013-03-06 20:02:00,
2013-03-06 15:07:00,35.6,55.9,30.25,NW,310,7.0,10.0,0,0.00,,,0.00,meteohub,2013-03-06 20:07:00,
2013-03-06 15:12:00,35.4,55.9,30.26,SSE,164,6.0,9.0,0,0.00,,,0.00,meteohub,2013-03-06 20:12:00,
2013-03-06 15:17:00,35.4,55.9,30.26,ENE,78,6.0,9.0,0,0.00,,,0.00,meteohub,2013-03-06 20:17:00,
2013-03-06 15:22:00,35.2,55.9,30.26,ESE,108,9.0,9.0,0,0.00,,,0.00,meteohub,2013-03-06 20:22:00,
2013-03-06 15:27:00,35.2,55.9,30.26,SW,217,7.0,9.0,0,0.00,,,0.00,meteohub,2013-03-06 20:27:00,
2013-03-06 15:32:00,35.1,55.0,30.27,West,281,8.0,9.0,0,0.00,,,0.00,meteohub,2013-03-06 20:32:00,
2013-03-06 15:37:00,35.1,55.0,30.26,SE,136,11.0,11.0,0,0.00,,,0.00,meteohub,2013-03-06 20:37:00,
2013-03-06 15:42:00,34.9,55.0,30.26,NW,313,8.0,11.0,0,0.00,,,0.00,meteohub,2013-03-06 20:42:00,
2013-03-06 15:47:00,34.9,55.0,30.26,NW,315,8.0,11.0,0,0.00,,,0.00,meteohub,2013-03-06 20:47:00,
2013-03-06 15:53:00,34.9,55.0,30.26,SE,146,8.0,11.0,0,0.00,,,0.00,meteohub,2013-03-06 20:53:00,
2013-03-06 15:58:00,34.7,55.0,30.26,SSE,154,9.0,11.0,0,0.00,,,0.00,meteohub,2013-03-06 20:58:00,
2013-03-06 16:03:00,34.5,55.0,30.26,SE,132,6.0,9.0,0,0.00,,,0.00,meteohub,2013-03-06 21:03:00,
2013-03-06 16:08:00,34.7,55.0,30.26,West,268,8.0,9.0,0,0.00,,,0.00,meteohub,2013-03-06 21:08:00,
2013-03-06 16:13:00,34.5,55.0,30.26,East,91,10.0,10.0,0,0.00,,,0.00,meteohub,2013-03-06 21:13:00,
2013-03-06 16:18:00,34.3,55.0,30.27,South,181,8.0,10.0,0,0.00,,,0.00,meteohub,2013-03-06 21:18:00,
2013-03-06 16:24:00,34.3,55.0,30.27,ESE,102,5.0,10.0,0,0.00,,,0.00,meteohub,2013-03-06 21:24:00,
2013-03-06 16:29:00,34.2,55.0,30.27,SW,222,5.0,10.0,0,0.00,,,0.00,meteohub,2013-03-06 21:29:00,
2013-03-06 16:34:00,34.2,55.0,30.27,South,191,7.0,10.0,0,0.00,,,0.00,meteohub,2013-03-06 21:34:00,
2013-03-06 16:39:00,34.2,55.0,30.27,WNW,289,9.0,9.0,0,0.00,,,0.00,meteohub,2013-03-06 21:39:00,
2013-03-06 16:44:00,34.0,55.0,30.27,ENE,64,5.0,9.0,0,0.00,,,0.00,meteohub,2013-03-06 21:44:00,
2013-03-06 16:49:00,34.0,55.0,30.27,West,279,7.0,9.0,0,0.00,,,0.00,meteohub,2013-03-06 21:49:00,
2013-03-06 16:54:00,34.0,55.0,30.27,East,80,7.0,9.0,0,0.00,,,0.00,meteohub,2013-03-06 21:54:00,
2013-03-06 17:00:00,34.0,55.0,30.27,SSW,205,5.0,9.0,0,0.00,,,0.00,meteohub,2013-03-06 22:00:00,
2013-03-06 17:05:00,33.8,55.0,30.27,SE,135,6.0,7.0,0,0.00,,,0.00,meteohub,2013-03-06 22:05:00,
2013-03-06 17:10:00,33.8,55.0,30.27,NW,320,3.0,7.0,0,0.00,,,0.00,meteohub,2013-03-06 22:10:00,
2013-03-06 17:15:00,33.6,55.0,30.27,NW,320,6.0,6.0,0,0.00,,,0.00,meteohub,2013-03-06 22:15:00,
2013-03-06 17:20:00,33.6,55.0,30.27,ESE,115,1.0,6.0,0,0.00,,,0.00,meteohub,2013-03-06 22:20:00,
2013-03-06 17:25:00,33.4,55.0,30.28,ESE,106,5.0,6.0,0,0.00,,,0.00,meteohub,2013-03-06 22:25:00,
2013-03-06 17:30:00,33.6,55.0,30.28,SSE,161,8.0,8.0,0,0.00,,,0.00,meteohub,2013-03-06 22:30:00,
2013-03-06 17:35:00,33.4,55.0,30.28,WSW,253,8.0,8.0,0,0.00,,,0.00,meteohub,2013-03-06 22:35:00,
2013-03-06 17:41:00,33.3,55.0,30.28,NNE,14,4.0,8.0,0,0.00,,,0.00,meteohub,2013-03-06 22:41:00,
2013-03-06 17:46:00,33.3,55.0,30.28,NNW,334,9.0,9.0,0,0.00,,,0.00,meteohub,2013-03-06 22:46:00,
2013-03-06 17:51:00,33.1,55.0,30.29,NNW,334,0.0,9.0,0,0.00,,,0.00,meteohub,2013-03-06 22:51:00,
2013-03-06 17:56:00,33.1,55.0,30.28,WSW,240,5.0,9.0,0,0.00,,,0.00,meteohub,2013-03-06 22:56:00,
2013-03-06 18:01:00,33.1,55.0,30.28,ENE,61,9.0,9.0,0,0.00,,,0.00,meteohub,2013-03-06 23:01:00,
2013-03-06 18:06:00,33.3,55.0,30.29,NE,47,6.0,9.0,0,0.00,,,0.00,meteohub,2013-03-06 23:06:00,
2013-03-06 18:11:00,33.1,55.0,30.29,North,2,6.0,9.0,0,0.00,,,0.00,meteohub,2013-03-06 23:11:00,
2013-03-06 18:16:00,33.1,55.0,30.30,SSW,201,7.0,9.0,0,0.00,,,0.00,meteohub,2013-03-06 23:16:00,
2013-03-06 18:21:00,33.1,55.0,30.29,WNW,284,3.0,9.0,0,0.00,,,0.00,meteohub,2013-03-06 23:21:00,
2013-03-06 18:26:00,33.1,55.0,30.29,SSW,199,10.0,10.0,0,0.00,,,0.00,meteohub,2013-03-06 23:26:00,
2013-03-06 18:32:00,33.1,55.0,30.29,ENE,57,6.0,10.0,0,0.00,,,0.00,meteohub,2013-03-06 23:32:00,
2013-03-06 18:37:00,33.1,55.0,30.30,NNW,347,8.0,10.0,0,0.00,,,0.00,meteohub,2013-03-06 23:37:00,
2013-03-06 18:42:00,33.1,55.0,30.30,SSW,202,6.0,10.0,0,0.00,,,0.00,meteohub,2013-03-06 23:42:00,
2013-03-06 18:47:00,33.1,55.0,30.29,NNE,25,6.0,10.0,0,0.00,,,0.00,meteohub,2013-03-06 23:47:00,
2013-03-06 18:52:00,32.9,55.0,30.29,NNW,348,8.0,8.0,0,0.00,,,0.00,meteohub,2013-03-06 23:52:00,
2013-03-06 18:57:00,32.9,55.0,30.29,WSW,243,7.0,8.0,0,0.00,,,0.00,meteohub,2013-03-06 23:57:00,
2013-03-06 19:02:00,32.7,55.0,30.29,WSW,250,9.0,9.0,0,0.00,,,0.00,meteohub,2013-03-07 00:02:00,
2013-03-06 19:07:00,32.9,55.0,30.30,WSW,250,2.0,9.0,0,0.00,,,0.00,meteohub,2013-03-07 00:07:00,
2013-03-06 19:12:00,32.7,55.0,30.30,WSW,250,0.0,9.0,0,0.00,,,0.00,meteohub,2013-03-07 00:12:00,
2013-03-06 19:17:00,32.7,55.0,30.30,WSW,250,0.0,9.0,0,0.00,,,0.00,meteohub,2013-03-07 00:17:00,
2013-03-06 19:22:00,32.7,55.0,30.29,WSW,250,0.0,9.0,0,0.00,,,0.00,meteohub,2013-03-07 00:22:00,
2013-03-06 19:27:00,32.7,55.0,30.29,WSW,250,0.0,2.0,0,0.00,,,0.00,meteohub,2013-03-07 00:27:00,
2013-03-06 19:32:00,32.7,55.0,30.29,WSW,250,0.0,0.0,0,0.00,,,0.00,meteohub,2013-03-07 00:32:00,
2013-03-06 19:37:00,32.7,55.0,30.29,NW,316,7.0,0.0,0,0.00,,,0.00,meteohub,2013-03-07 00:37:00,
2013-03-06 19:42:00,32.7,55.0,30.29,East,94,9.0,9.0,0,0.00,,,0.00,meteohub,2013-03-07 00:42:00,
2013-03-06 19:47:00,32.7,55.0,30.29,NE,43,3.0,9.0,0,0.00,,,0.00,meteohub,2013-03-07 00:47:00,
2013-03-06 19:52:00,32.7,55.0,30.29,ESE,105,7.0,9.0,0,0.00,,,0.00,meteohub,2013-03-07 00:52:00,
2013-03-06 19:57:00,32.5,55.0,30.29,East,80,5.0,9.0,0,0.00,,,0.00,meteohub,2013-03-07 00:57:00,
2013-03-06 20:02:00,32.5,55.0,30.28,West,278,6.0,9.0,0,0.00,,,0.00,meteohub,2013-03-07 01:02:00,
2013-03-06 20:07:00,32.5,55.0,30.28,East,101,7.0,7.0,0,0.00,,,0.00,meteohub,2013-03-07 01:07:00,
2013-03-06 20:12:00,32.5,55.0,30.28,NW,306,6.0,7.0,0,0.00,,,0.00,meteohub,2013-03-07 01:12:00,
2013-03-06 20:17:00,32.5,55.0,30.28,SE,136,8.0,8.0,0,0.00,,,0.00,meteohub,2013-03-07 01:17:00,
2013-03-06 20:22:00,32.5,55.0,30.28,North,352,10.0,10.0,0,0.00,,,0.00,meteohub,2013-03-07 01:22:00,
2013-03-06 20:27:00,32.5,55.0,30.28,West,267,7.0,10.0,0,0.00,,,0.00,meteohub,2013-03-07 01:27:00,
2013-03-06 20:32:00,32.5,55.0,30.28,SSE,149,10.0,10.0,0,0.00,,,0.00,meteohub,2013-03-07 01:32:00,
2013-03-06 20:37:00,32.4,55.0,30.27,West,275,7.0,10.0,0,0.00,,,0.00,meteohub,2013-03-07 01:37:00,
2013-03-06 20:42:00,32.4,55.0,30.27,NNE,19,5.0,10.0,0,0.00,,,0.00,meteohub,2013-03-07 01:42:00,
2013-03-06 20:47:00,32.4,55.0,30.27,North,7,8.0,10.0,0,0.00,,,0.00,meteohub,2013-03-07 01:47:00,
2013-03-06 20:52:00,32.4,55.0,30.27,SSW,196,6.0,10.0,0,0.00,,,0.00,meteohub,2013-03-07 01:52:00,
2013-03-06 20:57:00,32.4,55.0,30.27,WNW,284,8.0,8.0,0,0.00,,,0.00,meteohub,2013-03-07 01:57:00,
2013-03-06 21:02:00,32.4,55.0,30.27,NW,312,7.0,8.0,0,0.00,,,0.00,meteohub,2013-03-07 02:02:00,
2013-03-06 21:07:00,32.4,55.0,30.27,West,268,7.0,8.0,0,0.00,,,0.00,meteohub,2013-03-07 02:07:00,
2013-03-06 21:12:00,32.4,55.0,30.27,WNW,303,5.0,8.0,0,0.00,,,0.00,meteohub,2013-03-07 02:12:00,
2013-03-06 21:17:00,32.2,55.0,30.27,NW,322,4.0,8.0,0,0.00,,,0.00,meteohub,2013-03-07 02:17:00,
2013-03-06 21:22:00,32.4,55.0,30.27,South,182,7.0,7.0,0,0.00,,,0.00,meteohub,2013-03-07 02:22:00,
2013-03-06 21:27:00,32.4,55.0,30.27,East,98,10.0,10.0,0,0.00,,,0.00,meteohub,2013-03-07 02:27:00,
2013-03-06 21:32:00,32.2,55.0,30.27,West,275,8.0,10.0,0,0.00,,,0.00,meteohub,2013-03-07 02:32:00,
2013-03-06 21:37:00,32.2,55.0,30.27,WSW,246,9.0,10.0,0,0.00,,,0.00,meteohub,2013-03-07 02:37:00,
2013-03-06 21:42:00,32.2,55.0,30.27,NW,315,4.0,10.0,0,0.00,,,0.00,meteohub,2013-03-07 02:42:00,
2013-03-06 21:47:00,32.2,55.0,30.26,South,174,6.0,10.0,0,0.00,,,0.00,meteohub,2013-03-07 02:47:00,
2013-03-06 21:52:00,32.2,55.0,30.26,South,174,1.0,9.0,0,0.00,,,0.00,meteohub,2013-03-07 02:52:00,
2013-03-06 21:57:00,32.0,55.0,30.26,NW,324,0.0,9.0,0,0.00,,,0.00,meteohub,2013-03-07 02:57:00,
2013-03-06 22:02:00,31.8,55.0,30.26,NNW,340,7.0,7.0,0,0.00,,,0.00,meteohub,2013-03-07 03:02:00,
2013-03-06 22:07:00,31.8,55.0,30.26,NW,307,4.0,7.0,0,0.00,,,0.00,meteohub,2013-03-07 03:07:00,
2013-03-06 22:12:00,31.8,55.0,30.25,NW,323,8.0,8.0,0,0.00,,,0.00,meteohub,2013-03-07 03:12:00,
2013-03-06 22:17:00,31.8,55.0,30.25,WNW,286,5.0,8.0,0,0.00,,,0.00,meteohub,2013-03-07 03:17:00,
2013-03-06 22:22:00,31.8,55.0,30.25,NW,312,7.0,8.0,0,0.00,,,0.00,meteohub,2013-03-07 03:22:00,
2013-03-06 22:27:00,31.8,55.0,30.25,WNW,303,9.0,9.0,0,0.00,,,0.00,meteohub,2013-03-07 03:27:00,
2013-03-06 22:32:00,31.8,55.0,30.25,NW,322,10.0,10.0,0,0.00,,,0.00,meteohub,2013-03-07 03:32:00,
2013-03-06 22:37:00,31.8,55.0,30.25,ENE,71,7.0,10.0,0,0.00,,,0.00,meteohub,2013-03-07 03:37:00,
2013-03-06 22:42:00,31.8,55.0,30.25,WNW,302,9.0,10.0,0,0.00,,,0.00,meteohub,2013-03-07 03:42:00,
2013-03-06 22:47:00,31.8,55.0,30.25,NNW,348,10.0,10.0,0,0.00,,,0.00,meteohub,2013-03-07 03:47:00,
2013-03-06 22:52:00,31.6,55.0,30.25,NNW,329,7.0,10.0,0,0.00,,,0.00,meteohub,2013-03-07 03:52:00,
2013-03-06 22:57:00,31.6,55.0,30.24,NNE,25,9.0,10.0,0,0.00,,,0.00,meteohub,2013-03-07 03:57:00,
2013-03-06 23:02:00,31.6,55.0,30.24,SW,236,11.0,11.0,0,0.00,,,0.00,meteohub,2013-03-07 04:02:00,
2013-03-06 23:07:00,31.6,55.0,30.24,WNW,295,5.0,11.0,0,0.00,,,0.00,meteohub,2013-03-07 04:07:00,
2013-03-06 23:12:00,31.6,55.0,30.24,West,272,10.0,11.0,0,0.00,,,0.00,meteohub,2013-03-07 04:12:00,
2013-03-06 23:17:00,31.6,55.0,30.24,NE,53,8.0,11.0,0,0.00,,,0.00,meteohub,2013-03-07 04:17:00,
2013-03-06 23:22:00,31.6,55.0,30.24,SSW,203,4.0,11.0,0,0.00,,,0.00,meteohub,2013-03-07 04:22:00,
2013-03-06 23:27:00,31.6,55.0,30.24,WNW,293,6.0,10.0,0,0.00,,,0.00,meteohub,2013-03-07 04:27:00,
2013-03-06 23:32:00,31.5,55.0,30.25,NNE,33,6.0,10.0,0,0.00,,,0.00,meteohub,2013-03-07 04:32:00,
2013-03-06 23:37:00,31.5,55.0,30.24,WSW,247,5.0,8.0,0,0.00,,,0.00,meteohub,2013-03-07 04:37:00,
2013-03-06 23:42:00,31.5,55.0,30.25,ENE,74,8.0,8.0,0,0.00,,,0.00,meteohub,2013-03-07 04:42:00,
2013-03-06 23:47:00,31.6,55.0,30.25,SSW,202,5.0,8.0,0,0.00,,,0.00,meteohub,2013-03-07 04:47:00,
2013-03-06 23:52:00,31.5,55.0,30.25,ESE,102,3.0,8.0,0,0.00,,,0.00,meteohub,2013-03-07 04:52:00,
2013-03-06 23:57:00,31.5,55.0,30.25,South,184,10.0,10.0,0,0.00,,,0.00,meteohub,2013-03-07 04:57:00,